AUA72A HECA-LOWW

Flight info

Callsign AUA72A
Flight time N/A
Altitude 36000
Route MENKU L617 NOZ L551 ANTAR UN133 PAMIC/N0446F380 UN133 PEREN UL863 EVIVI L863 OKANA DCT PARAK DCT BALUX DCT TORNO DCT NATEX NATEX2W
Aircraft A20N/M-SDE2E3FGHIJ1RWXY/LB1

Departure

Time N/A
Airport Cairo International Airport (HECA)

Arrival

Time 2026-04-24 21:16
Airport Vienna International Airport (LOWW)
Time Latitude Longitude Altitude Speed Heading
2026-04-24 19:25 38.40533 25.36279 37980 ft 445 kts 334°
2026-04-24 19:25 38.46044 25.32772 37994 ft 446 kts 334°
2026-04-24 19:26 38.51606 25.29225 37989 ft 445 kts 334°
2026-04-24 19:26 38.57160 25.25784 37996 ft 445 kts 335°
2026-04-24 19:27 38.62751 25.22429 37987 ft 444 kts 335°
2026-04-24 19:27 38.68301 25.19067 37992 ft 443 kts 335°
2026-04-24 19:28 38.73879 25.15670 37994 ft 442 kts 335°
2026-04-24 19:28 38.79395 25.12295 37998 ft 441 kts 336°
2026-04-24 19:29 38.87682 25.07218 38004 ft 440 kts 336°
2026-04-24 19:30 38.93186 25.03837 38001 ft 439 kts 336°
2026-04-24 19:30 38.98672 25.00463 37996 ft 438 kts 336°
2026-04-24 19:31 39.04153 24.97083 37995 ft 438 kts 336°
2026-04-24 19:31 39.09638 24.93693 37992 ft 437 kts 336°
2026-04-24 19:32 39.15102 24.90313 37991 ft 436 kts 336°
2026-04-24 19:32 39.20571 24.86922 37995 ft 435 kts 337°
2026-04-24 19:33 39.26023 24.83540 37997 ft 435 kts 336°
2026-04-24 19:33 39.31443 24.80169 37995 ft 435 kts 336°
2026-04-24 19:34 39.36919 24.76756 37995 ft 435 kts 337°
2026-04-24 19:34 39.42358 24.73359 37995 ft 435 kts 337°
2026-04-24 19:35 39.47792 24.69962 37996 ft 434 kts 337°
2026-04-24 19:35 39.53188 24.66583 37999 ft 433 kts 337°
2026-04-24 19:36 39.58610 24.63182 37993 ft 433 kts 337°
2026-04-24 19:36 39.64025 24.59780 37998 ft 432 kts 337°
2026-04-24 19:37 39.69405 24.56391 37995 ft 432 kts 337°
2026-04-24 19:37 39.74800 24.52989 37997 ft 432 kts 337°
2026-04-24 19:38 39.80226 24.49561 37998 ft 432 kts 338°
2026-04-24 19:38 39.85586 24.46168 37997 ft 430 kts 338°
2026-04-24 19:39 39.90961 24.42763 37998 ft 430 kts 338°
2026-04-24 19:39 39.96313 24.39364 37992 ft 430 kts 338°
2026-04-24 19:40 40.01680 24.35948 37995 ft 429 kts 338°
2026-04-24 19:40 40.07041 24.32530 38003 ft 429 kts 337°
2026-04-24 19:41 40.12425 24.29094 38008 ft 429 kts 337°
2026-04-24 19:41 40.17766 24.25677 38009 ft 428 kts 337°
2026-04-24 19:42 40.23107 24.22256 38010 ft 428 kts 337°
2026-04-24 19:42 40.28431 24.18839 38007 ft 427 kts 337°
2026-04-24 19:43 40.33763 24.15410 38001 ft 427 kts 337°
2026-04-24 19:43 40.39066 24.11993 38008 ft 427 kts 338°
2026-04-24 19:44 40.44386 24.08561 38016 ft 426 kts 338°
2026-04-24 19:44 40.49676 24.05142 37998 ft 425 kts 338°
2026-04-24 19:45 40.54968 24.01715 38013 ft 425 kts 338°
2026-04-24 19:45 40.60256 23.98286 38032 ft 425 kts 338°
2026-04-24 19:46 40.65569 23.94830 37992 ft 425 kts 338°
2026-04-24 19:46 40.70863 23.91385 38020 ft 425 kts 338°
2026-04-24 19:47 40.76146 23.87941 38007 ft 424 kts 338°
2026-04-24 19:47 40.81382 23.84518 38008 ft 423 kts 338°
2026-04-24 19:48 40.86661 23.81062 38028 ft 423 kts 338°
2026-04-24 19:48 40.94548 23.75890 38013 ft 423 kts 338°
2026-04-24 19:49 41.05061 23.68970 38019 ft 422 kts 338°
2026-04-24 19:50 41.15557 23.62036 38022 ft 421 kts 338°
2026-04-24 19:51 41.23386 23.56847 38030 ft 420 kts 338°
2026-04-24 19:52 41.31211 23.51643 38034 ft 419 kts 338°
2026-04-24 19:52 41.36425 23.48166 38030 ft 419 kts 338°
2026-04-24 19:53 41.41623 23.44709 38033 ft 417 kts 338°
2026-04-24 19:54 41.49410 23.39660 38024 ft 416 kts 339°
2026-04-24 19:54 41.54612 23.36273 38028 ft 416 kts 339°
2026-04-24 19:55 41.58944 23.33444 38028 ft 416 kts 338°
2026-04-24 19:55 41.64983 23.29494 38030 ft 416 kts 338°
2026-04-24 19:56 41.70178 23.26082 38031 ft 415 kts 338°
2026-04-24 19:56 41.75349 23.22684 38039 ft 415 kts 338°
2026-04-24 19:57 41.80504 23.19289 38040 ft 415 kts 338°
2026-04-24 19:57 41.85688 23.15868 38046 ft 415 kts 338°
2026-04-24 19:58 41.90836 23.12466 38048 ft 414 kts 338°
2026-04-24 19:58 41.96014 23.09037 38040 ft 414 kts 338°
2026-04-24 19:59 42.01154 23.05627 38033 ft 413 kts 338°
2026-04-24 19:59 42.06288 23.02214 38032 ft 413 kts 337°
2026-04-24 20:00 42.11456 22.98768 38031 ft 413 kts 338°
2026-04-24 20:00 42.16563 22.95358 38032 ft 413 kts 338°
2026-04-24 20:01 42.21700 22.91920 38033 ft 413 kts 338°
2026-04-24 20:01 42.26851 22.88469 38032 ft 413 kts 337°
2026-04-24 20:02 42.31120 22.85613 38034 ft 412 kts 337°
2026-04-24 20:02 42.37120 22.81591 38036 ft 412 kts 337°
2026-04-24 20:03 42.42206 22.78168 38037 ft 412 kts 337°
2026-04-24 20:03 42.47341 22.74702 38037 ft 412 kts 337°
2026-04-24 20:04 42.52478 22.71227 38039 ft 412 kts 337°
2026-04-24 20:04 42.57582 22.67768 38042 ft 412 kts 337°
2026-04-24 20:05 42.62686 22.64312 38044 ft 411 kts 337°
2026-04-24 20:05 42.67818 22.60831 38046 ft 411 kts 337°
2026-04-24 20:06 42.72916 22.57361 38046 ft 411 kts 337°
2026-04-24 20:06 42.77994 22.53893 38047 ft 411 kts 337°
2026-04-24 20:07 42.82233 22.50994 38048 ft 411 kts 337°
2026-04-24 20:07 42.88215 22.46924 38050 ft 411 kts 337°
2026-04-24 20:08 42.93292 22.43487 38050 ft 410 kts 337°
2026-04-24 20:08 42.98391 22.40021 38048 ft 410 kts 337°
2026-04-24 20:09 43.03504 22.36535 38055 ft 410 kts 337°
2026-04-24 20:09 43.08578 22.33067 38057 ft 410 kts 336°
2026-04-24 20:10 43.13688 22.29567 38062 ft 410 kts 336°
2026-04-24 20:10 43.18755 22.26089 38057 ft 409 kts 336°
2026-04-24 20:11 43.23831 22.22597 38059 ft 409 kts 336°
2026-04-24 20:11 43.28915 22.19096 38056 ft 409 kts 336°
2026-04-24 20:12 43.33990 22.15593 38053 ft 409 kts 336°
2026-04-24 20:12 43.39082 22.12074 38053 ft 410 kts 336°
2026-04-24 20:13 43.44152 22.08561 38049 ft 409 kts 336°
2026-04-24 20:13 43.49240 22.05030 38050 ft 409 kts 336°
2026-04-24 20:14 43.54298 22.01512 38052 ft 409 kts 336°
2026-04-24 20:14 43.59352 21.97991 38047 ft 408 kts 336°
2026-04-24 20:15 43.64405 21.94463 38044 ft 408 kts 336°
2026-04-24 20:15 43.69479 21.90914 38050 ft 408 kts 336°
2026-04-24 20:16 43.74534 21.87372 38049 ft 408 kts 336°
2026-04-24 20:16 43.79571 21.83836 38052 ft 407 kts 336°
2026-04-24 20:17 43.84613 21.80290 38048 ft 407 kts 336°
2026-04-24 20:17 43.92157 21.74971 38052 ft 407 kts 336°
2026-04-24 20:18 43.97175 21.71425 38049 ft 407 kts 336°
2026-04-24 20:18 44.02210 21.67859 38052 ft 407 kts 336°
2026-04-24 20:19 44.07258 21.64277 38048 ft 407 kts 336°
2026-04-24 20:19 44.12298 21.60695 38050 ft 406 kts 336°
2026-04-24 20:20 44.17292 21.57138 38052 ft 406 kts 336°
2026-04-24 20:20 44.22321 21.53550 38050 ft 406 kts 336°
2026-04-24 20:21 44.27314 21.49980 38049 ft 405 kts 336°
2026-04-24 20:21 44.32338 21.46381 38048 ft 405 kts 336°
2026-04-24 20:22 44.37326 21.42801 38042 ft 404 kts 336°
2026-04-24 20:22 44.42309 21.39219 38038 ft 403 kts 336°
2026-04-24 20:23 44.47292 21.35629 38039 ft 404 kts 336°
2026-04-24 20:23 44.52255 21.32045 38042 ft 403 kts 336°
2026-04-24 20:24 44.57249 21.28434 38038 ft 403 kts 335°
2026-04-24 20:24 44.62216 21.24834 38037 ft 403 kts 336°
2026-04-24 20:25 44.67176 21.21233 38029 ft 402 kts 335°
2026-04-24 20:25 44.72107 21.17645 38037 ft 401 kts 336°
2026-04-24 20:26 44.77077 21.14023 38033 ft 402 kts 336°
2026-04-24 20:26 44.81998 21.10430 38023 ft 401 kts 336°
2026-04-24 20:27 44.86944 21.06811 38018 ft 400 kts 335°
2026-04-24 20:27 44.91872 21.03197 38013 ft 400 kts 335°
2026-04-24 20:28 44.96793 20.99582 38013 ft 399 kts 335°
2026-04-24 20:28 45.01701 20.95968 38009 ft 398 kts 336°
2026-04-24 20:29 45.06617 20.92342 38010 ft 399 kts 336°
2026-04-24 20:29 45.09073 20.90529 38135 ft 398 kts 336°
2026-04-24 20:29 45.11526 20.88717 38064 ft 397 kts 336°
2026-04-24 20:30 45.16410 20.85102 38030 ft 396 kts 335°
2026-04-24 20:30 45.21283 20.81487 38012 ft 395 kts 335°
2026-04-24 20:31 45.26168 20.77854 38008 ft 395 kts 336°
2026-04-24 20:31 45.31021 20.74240 38006 ft 395 kts 335°
2026-04-24 20:32 45.35885 20.70611 38012 ft 396 kts 336°
2026-04-24 20:32 45.40728 20.66991 38015 ft 396 kts 335°
2026-04-24 20:33 45.45598 20.63343 38014 ft 396 kts 335°
2026-04-24 20:33 45.50471 20.59685 38010 ft 395 kts 335°
2026-04-24 20:34 45.55291 20.56060 38013 ft 394 kts 335°
2026-04-24 20:34 45.60116 20.52424 38010 ft 394 kts 335°
2026-04-24 20:35 45.64973 20.48756 38017 ft 394 kts 335°
2026-04-24 20:35 45.69799 20.45106 38022 ft 394 kts 335°
2026-04-24 20:36 45.74632 20.41441 38023 ft 394 kts 335°
2026-04-24 20:36 45.79485 20.37756 38022 ft 393 kts 335°
2026-04-24 20:37 45.84307 20.34084 38019 ft 393 kts 335°
2026-04-24 20:37 45.89112 20.30420 38020 ft 394 kts 335°
2026-04-24 20:38 45.93933 20.26735 38012 ft 394 kts 335°
2026-04-24 20:38 45.98806 20.23004 38020 ft 394 kts 334°
2026-04-24 20:39 46.03590 20.19327 38020 ft 393 kts 334°
2026-04-24 20:39 46.08424 20.15608 38020 ft 393 kts 335°
2026-04-24 20:40 46.13238 20.11895 38020 ft 393 kts 334°
2026-04-24 20:40 46.18042 20.08166 38022 ft 393 kts 334°
2026-04-24 20:41 46.22807 20.04361 38022 ft 392 kts 334°
2026-04-24 20:41 46.27589 20.00524 38025 ft 392 kts 334°
2026-04-24 20:42 46.32337 19.96707 38025 ft 392 kts 334°
2026-04-24 20:42 46.37111 19.92859 38023 ft 393 kts 333°
2026-04-24 20:43 46.41853 19.89030 38022 ft 392 kts 334°
2026-04-24 20:43 46.46614 19.85180 38021 ft 392 kts 333°
2026-04-24 20:44 46.51327 19.81362 38020 ft 391 kts 333°
2026-04-24 20:44 46.56056 19.77521 38017 ft 390 kts 333°
2026-04-24 20:45 46.60804 19.73659 38019 ft 391 kts 333°
2026-04-24 20:45 46.65532 19.69803 38014 ft 391 kts 333°
2026-04-24 20:46 46.70248 19.65950 38011 ft 389 kts 333°
2026-04-24 20:46 46.74968 19.62086 38010 ft 389 kts 333°
2026-04-24 20:47 46.79667 19.58233 38010 ft 389 kts 333°
2026-04-24 20:47 46.84404 19.54338 38007 ft 388 kts 333°
2026-04-24 20:48 46.89087 19.50479 38002 ft 387 kts 333°
2026-04-24 20:48 46.93747 19.46631 38001 ft 388 kts 333°
2026-04-24 20:49 46.98444 19.42746 37998 ft 387 kts 333°
2026-04-24 20:49 47.03110 19.38877 37999 ft 387 kts 333°
2026-04-24 20:50 47.07789 19.34990 38000 ft 388 kts 332°
2026-04-24 20:50 47.12484 19.31082 38003 ft 387 kts 332°
2026-04-24 20:51 47.17147 19.27188 38003 ft 386 kts 332°
2026-04-24 20:51 47.21792 19.23301 38005 ft 386 kts 332°
2026-04-24 20:52 47.26469 19.19382 38003 ft 386 kts 331°
2026-04-24 20:52 47.30830 19.14768 38004 ft 389 kts 321°
2026-04-24 20:53 47.34542 19.08973 38004 ft 393 kts 311°
2026-04-24 20:53 47.37480 19.02130 38004 ft 399 kts 301°
2026-04-24 20:54 47.39846 18.94721 38007 ft 400 kts 299°
2026-04-24 20:54 47.42162 18.87286 37876 ft 399 kts 299°
2026-04-24 20:55 47.43321 18.83562 37074 ft 406 kts 299°
2026-04-24 20:55 47.44500 18.79775 36051 ft 413 kts 299°
2026-04-24 20:55 47.45685 18.75959 35145 ft 416 kts 299°
2026-04-24 20:55 47.46886 18.72083 34310 ft 418 kts 299°
2026-04-24 20:56 47.48096 18.68175 33557 ft 420 kts 298°
2026-04-24 20:56 47.49301 18.64276 32793 ft 422 kts 298°
2026-04-24 20:56 47.50521 18.60321 31985 ft 424 kts 298°
2026-04-24 20:56 47.51750 18.56333 31178 ft 427 kts 298°
2026-04-24 20:57 47.52961 18.52395 30464 ft 426 kts 297°
2026-04-24 20:57 47.54083 18.48358 29951 ft 422 kts 294°
2026-04-24 20:57 47.55010 18.44333 29322 ft 415 kts 291°
2026-04-24 20:57 47.55883 18.40292 28449 ft 412 kts 291°
2026-04-24 20:58 47.56735 18.36301 27764 ft 410 kts 291°
2026-04-24 20:58 47.57592 18.32264 27260 ft 406 kts 290°
2026-04-24 20:58 47.58424 18.28332 26755 ft 402 kts 290°
2026-04-24 20:58 47.59256 18.24406 26238 ft 399 kts 290°
2026-04-24 20:59 47.60077 18.20521 25719 ft 396 kts 290°
2026-04-24 20:59 47.60886 18.16691 25208 ft 393 kts 290°
2026-04-24 20:59 47.61694 18.12849 24704 ft 389 kts 290°
2026-04-24 20:59 47.62499 18.09027 24208 ft 386 kts 290°
2026-04-24 21:00 47.63292 18.05247 23715 ft 384 kts 290°
2026-04-24 21:00 47.64069 18.01544 23231 ft 381 kts 289°
2026-04-24 21:00 47.64849 17.97810 22740 ft 378 kts 289°
2026-04-24 21:00 47.65671 17.94162 22227 ft 374 kts 295°
2026-04-24 21:01 47.66798 17.90698 21739 ft 370 kts 299°
2026-04-24 21:01 47.67990 17.87338 21262 ft 367 kts 300°
2026-04-24 21:01 47.69147 17.84059 20672 ft 361 kts 299°
2026-04-24 21:01 47.70301 17.80735 19869 ft 359 kts 299°
2026-04-24 21:02 47.71415 17.77484 19085 ft 356 kts 299°
2026-04-24 21:02 47.72509 17.74258 18310 ft 354 kts 299°
2026-04-24 21:02 47.73606 17.71010 17743 ft 352 kts 299°
2026-04-24 21:02 47.74698 17.67761 17313 ft 348 kts 299°
2026-04-24 21:03 47.75760 17.64592 16868 ft 346 kts 298°
2026-04-24 21:03 47.76823 17.61407 16409 ft 344 kts 298°
2026-04-24 21:03 47.77877 17.58246 15954 ft 341 kts 298°
2026-04-24 21:03 47.78919 17.55111 15496 ft 340 kts 298°
2026-04-24 21:04 47.79966 17.51960 15028 ft 338 kts 299°
2026-04-24 21:04 47.80992 17.48867 14573 ft 336 kts 299°
2026-04-24 21:04 47.82023 17.45757 14119 ft 334 kts 299°
2026-04-24 21:04 47.83029 17.42715 13690 ft 331 kts 299°
2026-04-24 21:05 47.84031 17.39683 13334 ft 323 kts 299°
2026-04-24 21:05 47.85011 17.36706 12899 ft 312 kts 299°
2026-04-24 21:05 47.85949 17.33859 12445 ft 302 kts 298°
2026-04-24 21:05 47.86842 17.31146 11933 ft 291 kts 298°
2026-04-24 21:06 47.87711 17.28498 11478 ft 279 kts 298°
2026-04-24 21:06 47.88556 17.25927 10914 ft 272 kts 298°
2026-04-24 21:06 47.89375 17.23434 10335 ft 267 kts 298°
2026-04-24 21:06 47.90168 17.21016 9729 ft 262 kts 298°
2026-04-24 21:07 47.90964 17.18592 9110 ft 258 kts 298°
2026-04-24 21:07 47.91741 17.16220 8474 ft 254 kts 298°
2026-04-24 21:07 47.92499 17.13902 7845 ft 251 kts 298°
2026-04-24 21:07 47.93258 17.11655 7229 ft 247 kts 300°
2026-04-24 21:08 47.94049 17.09441 6636 ft 242 kts 299°
2026-04-24 21:08 47.94811 17.07269 6241 ft 235 kts 298°
2026-04-24 21:08 47.95553 17.05092 5895 ft 234 kts 298°
2026-04-24 21:08 47.96272 17.02931 5559 ft 234 kts 297°
2026-04-24 21:09 47.96981 17.00755 5230 ft 234 kts 297°
2026-04-24 21:09 47.97683 16.98572 4885 ft 235 kts 297°
2026-04-24 21:09 47.98387 16.96370 4592 ft 235 kts 297°
2026-04-24 21:09 47.99082 16.94187 4284 ft 234 kts 297°
2026-04-24 21:10 47.99777 16.92004 4084 ft 228 kts 297°
2026-04-24 21:10 48.00452 16.89885 3832 ft 224 kts 297°
2026-04-24 21:10 48.01112 16.87822 3587 ft 221 kts 297°
2026-04-24 21:10 48.01770 16.85767 3336 ft 217 kts 298°
2026-04-24 21:11 48.02416 16.83758 3130 ft 212 kts 298°
2026-04-24 21:11 48.03040 16.81817 3045 ft 200 kts 298°
2026-04-24 21:11 48.03623 16.80005 3005 ft 186 kts 298°
2026-04-24 21:11 48.04158 16.78347 2990 ft 175 kts 298°
2026-04-24 21:12 48.04689 16.76709 3021 ft 174 kts 298°
2026-04-24 21:12 48.05042 16.75621 3089 ft 174 kts 298°
2026-04-24 21:12 48.05750 16.73436 2877 ft 174 kts 298°
2026-04-24 21:12 48.06275 16.71813 2651 ft 174 kts 298°
2026-04-24 21:13 48.06796 16.70205 2427 ft 172 kts 298°
2026-04-24 21:13 48.07304 16.68638 2191 ft 160 kts 297°
2026-04-24 21:13 48.07766 16.67210 1999 ft 145 kts 298°
2026-04-24 21:13 48.08187 16.65914 1798 ft 137 kts 298°
2026-04-24 21:14 48.08605 16.64629 1628 ft 136 kts 298°
2026-04-24 21:14 48.09018 16.63361 1452 ft 136 kts 297°
2026-04-24 21:14 48.09428 16.62111 1284 ft 136 kts 297°
2026-04-24 21:14 48.09827 16.60830 1093 ft 135 kts 296°
2026-04-24 21:15 48.10238 16.59564 905 ft 134 kts 298°
2026-04-24 21:15 48.10661 16.58314 742 ft 134 kts 297°
2026-04-24 21:15 48.11071 16.57074 614 ft 131 kts 290°
2026-04-24 21:15 48.11404 16.56045 608 ft 84 kts 295°
2026-04-24 21:16 48.11597 16.55459 608 ft 42 kts 305°
2026-04-24 21:16 48.11723 16.55264 607 ft 14 kts 326°
2026-04-24 21:16 48.11781 16.55191 607 ft 9 kts 313°
2026-04-24 21:16 48.11822 16.55143 607 ft 7 kts 340°
2026-04-24 21:17 48.11866 16.55148 607 ft 5 kts 33°
2026-04-24 21:17 48.11879 16.55209 607 ft 7 kts 105°
2026-04-24 21:17 48.11855 16.55289 607 ft 9 kts 117°
2026-04-24 21:17 48.11835 16.55351 607 ft 10 kts 115°
2026-04-24 21:18 48.11785 16.55506 607 ft 13 kts 116°
2026-04-24 21:18 48.11742 16.55636 607 ft 14 kts 116°
2026-04-24 21:18 48.11695 16.55781 607 ft 16 kts 116°
2026-04-24 21:18 48.11647 16.55934 607 ft 16 kts 115°
2026-04-24 21:19 48.11596 16.56091 607 ft 16 kts 116°
2026-04-24 21:19 48.11544 16.56248 607 ft 17 kts 117°
2026-04-24 21:19 48.11489 16.56412 607 ft 17 kts 117°
2026-04-24 21:19 48.11434 16.56577 608 ft 17 kts 114°
2026-04-24 21:20 48.11326 16.56919 608 ft 18 kts 116°
2026-04-24 21:20 48.11269 16.57090 608 ft 18 kts 117°
2026-04-24 21:20 48.11239 16.57266 608 ft 18 kts 60°
2026-04-24 21:21 48.11348 16.57357 607 ft 18 kts 23°
2026-04-24 21:21 48.11460 16.57433 608 ft 17 kts 23°
2026-04-24 21:21 48.11578 16.57445 608 ft 17 kts 344°
2026-04-24 21:21 48.11695 16.57394 608 ft 17 kts 343°
2026-04-24 21:22 48.11793 16.57347 608 ft 11 kts 333°
2026-04-24 21:22 48.11840 16.57261 608 ft 10 kts 297°
2026-04-24 21:22 48.11885 16.57177 608 ft 10 kts 306°
2026-04-24 21:22 48.11908 16.57118 608 ft 9 kts 295°
2026-04-24 21:23 48.11946 16.56999 608 ft 9 kts 296°
2026-04-24 21:23 48.11969 16.56954 608 ft 3 kts 22°
2026-04-24 21:23 48.11982 16.56963 608 ft 2 kts 26°
2026-04-24 21:23 48.11994 16.56973 608 ft 2 kts 28°
2026-04-24 21:24 48.11996 16.56975 608 ft 1 kts 27°
2026-04-24 21:24 48.12006 16.56982 608 ft 0 kts 26°